Location: Morisset
(33.1080°S, 151.4871°E)
Time: 13:07:37
(UTC+00:00)

Cosmos 1943 Rocket - Pass Details

Date: 29 October 2020
Orbit: 813 x 842 km, 71.0° (Epoch: 23 November)

Event Time Altitude Azimuth Distance (km) Brightness Sun altitude
Exits shadow 15:20:18 18° 93° (E) 1,947 4.3 -37.1°
Drops below altitude 10° 15:23:11 10° 123° (ESE) 2,469 5.3 -36.8°
Sets 15:26:20 0° 140° (SE) 3,417 6.3 -36.5°
